Flag for U.S.A. Weather past 2 weeks in Inglewood, California, U.S.A.

Now
61 °F

Clear.


Feels Like: 61 °F
Forecast: 58 / 80 °F
Wind: No wind

Location: Hawthorne Municipal Airport

Current Time: Apr 27, 2015 at 2:46:47 AM

Latest Report: Apr 27, 2015 at 1:53 AM


Visibility: 10 mi

Pressure: 29.92 "Hg

Humidity: 72%

Dew point: 52 °F

Location of InglewoodLocation

Historic Weather in Inglewood — Graph

°F

Inglewood temperature yesterday

Maximum temperature yesterday: 71 °F (at 11:53 AM)
Minimum temperature yesterday: 54 °F (at 6:53 AM)
Average temperature yesterday: 64 °F

Past Weeks' High & Low Weather Summary

 TemperatureHumidityPressure
High81 °F (Apr 16, 1:53 PM)90% (Apr 25, 2:55 PM)30.10 "Hg (Apr 25, 2:55 PM)
Low54 °F (Apr 26, 6:53 AM)7% (Apr 16, 11:53 AM)29.84 "Hg (Apr 20, 5:53 PM)
Average64 °F61%29.96 "Hg
* Reported Apr 12 12:53 AM — Apr 27 12:53 AM, Inglewood, Weather by CustomWeather, © 2015

Note: Actual official high and low records may vary slightly from our data, if they occured in-between our weather recording intervals... More about our weather records

Advertising

Inglewood weather history for previous 24 hours

 ConditionsComfort  
Time TempWeatherWind HumidityBarometerVisibility
12:53 AM
Mon, Apr 27
62 °FClear.6 mph70%29.93 "Hg10 mi
11:53 PM
Sun, Apr 26
63 °FClear.5 mph68%29.93 "Hg10 mi
10:53 PM63 °FClear.No wind68%29.93 "Hg10 mi
9:53 PM64 °FClear.5 mph63%29.92 "Hg10 mi
8:53 PM65 °FClear.8 mph59%29.90 "Hg10 mi
7:53 PM66 °FSunny.10 mph56%29.89 "Hg10 mi
6:53 PM70 °FSunny.12 mph44%29.88 "Hg10 mi
5:53 PM70 °FSunny.22 mph46%29.87 "Hg10 mi
4:53 PM71 °FSunny.12 mph41%29.90 "Hg10 mi
3:53 PM70 °FSunny.15 mph42%29.92 "Hg10 mi
2:53 PM71 °FSunny.13 mph39%29.96 "Hg10 mi
1:53 PM69 °FSunny.9 mph44%29.97 "Hg10 mi
12:53 PM71 °FSunny.14 mph41%29.97 "Hg10 mi
11:53 AM71 °FSunny.10 mph41%29.99 "Hg10 mi
10:53 AM68 °FSunny.5 mph51%30.00 "Hg10 mi
9:53 AM65 °FSunny.6 mph56%30.00 "Hg10 mi
8:53 AM61 °FSunny.6 mph67%30.00 "Hg10 mi
7:53 AM58 °FSunny.7 mph75%29.99 "Hg10 mi
6:53 AM54 °FClear.No wind83%29.98 "Hg10 mi
5:53 AM55 °FClear.3 mph83%29.96 "Hg10 mi
4:53 AM55 °FClear.No wind80%29.94 "Hg10 mi
3:53 AM55 °FClear.No wind80%29.93 "Hg10 mi
2:53 AM56 °FClear.5 mph81%29.92 "Hg10 mi
Weather by CustomWeather, © 2015

See weather overviewHow to use our weather pages